Regional Weather Roundup
Issued by NWS

Home | Current Version | Previous Version | Graphics & Text | Print | Product List | Glossary On
Versions: 1 2 3 4 5 6 7 8 9 10 11 12 13 14 15 16 17 18 19 20 21 22 23 24 25 26 27 28 29 30 31 32 33 34 35 36 37 38 39 40 41 42 43 44 45 46 47 48 49 50
000
ASUS43 KMKX 011700
RWRWI

WISCONSIN REGIONAL WEATHER ROUNDUP
NATIONAL WEATHER SERVICE MILWAUKEE/SULLIVAN WI
1200 PM CDT SAT AUG 01 2015

NOTE: "FAIR" INDICATES FEW OR NO CLOUDS BELOW 12,000 FEET WITH NO
SIGNIFICANT WEATHER AND/OR OBSTRUCTIONS TO VISIBILITY.

WIZ001-002-006>008-014>016-023>028-011800-
NORTHWEST WISCONSIN

CITY           SKY/WX    TMP DP  RH WIND       PRES   REMARKS
SUPERIOR ARPT  MOSUNNY   77  53  43 NW14      29.91S
ASHLAND        MOSUNNY   76  55  48 VRB5      29.90F
HAYWARD        MOSUNNY   76  50  40 W8        29.94F
SIREN          SUNNY     77  51  40 W5        29.96S
CUMBERLAND     SUNNY     73  52  46 W8        29.97S
RICE LAKE      SUNNY     76  53  44 SW9       29.98S
CHETEK         SUNNY     76  53  43 W7G17     29.97R
LADYSMITH      SUNNY     76  51  40 W8        29.98S
EAU CLAIRE     SUNNY     79  51  37 SW8       29.96S
MENOMONIE      SUNNY     78  54  42 S6        29.98R
NEW RICHMOND   SUNNY     79  50  35 W7        29.98S
OSCEOLA        SUNNY     78  53  41 NW6       29.99S
$$

WIZ003>005-009-010-017-018-011800-
NORTH CENTRAL WISCONSIN

CITY           SKY/WX    TMP DP  RH WIND       PRES   REMARKS
MANITOWISH WTR PTSUNNY   71  53  51 NW14G20   29.94S
ARBOR VITAE    MOSUNNY   72  55  54 NW10      29.94S
WOODRUFF       MOSUNNY   72  55  54 NW10      29.94S
RHINELANDER    MOSUNNY   74  51  44 NW10G18   29.96S
EAGLE RIVER    PTSUNNY   73  49  43 NW8G17    29.93F
LAND O LAKES   MOSUNNY   72  50  45 NW10G17   29.94S
PHILLIPS       SUNNY     73  53  49 NW6       29.95F
TOMAHAWK       SUNNY     72  53  50 NW9       29.96S
MEDFORD        SUNNY     74  52  46 NW10      29.97S
MERRILL        NOT AVBL
$$

WIZ029-030-035-036-043>047-011800-
CENTRAL WISCONSIN

CITY           SKY/WX    TMP DP  RH WIND       PRES   REMARKS
WAUSAU         SUNNY     77  47  34 NW13      29.94S
MOSINEE        MOSUNNY   75  50  41 NW10G20   29.97F
MARSHFIELD     SUNNY     78  49  35 NW8       29.97S
STEVENS POINT  SUNNY     75  48  38 NW10G21   29.97S
WAUPACA        SUNNY     81  46  29 NW13      29.95F HX  80
WAUTOMA        NOT AVBL
WISC RAPIDS    PTSUNNY   79  50  36 VRB7      29.98S
CAMP DOUGLAS   NOT AVBL
$$

WIZ011>013-019>022-031-037>040-048>050-011800-
NORTHEAST WISCONSIN

CITY           SKY/WX    TMP DP  RH WIND       PRES   REMARKS
ANTIGO         SUNNY     73  52  48 W16G24    29.95S
SHAWANO        SUNNY     78  52  40 W12G17    29.93S
OCONTO         SUNNY     77  53  43 W9        29.90R
STURGEON BAY   SUNNY     75  54  46 W12G18    29.93S
GREEN BAY      SUNNY     78  55  44 NW13      29.92S
MANITOWOC      NOT AVBL
APPLETON       MOSUNNY   79  46  31 NW13G21   29.95S
CLINTONVILLE   SUNNY     77  46  33 NW14      29.94R
OSHKOSH        SUNNY     79  51  37 W10       29.94F
$$

WIZ032>034-041-042-053>061-011800-
SOUTHWEST WISCONSIN

CITY           SKY/WX    TMP DP  RH WIND       PRES   REMARKS
LA CROSSE      SUNNY     80  58  46 W3        29.96F HX  80
SPARTA         SUNNY     80  48  32 SW3       29.98S
VIROQUA        SUNNY     77  61  58 W3        30.00S
BOSCOBEL       MOSUNNY   83  64  52 W12G18    29.97F HX  84
PRAIRIE DU CHI SUNNY     83  61  47 W10G20    29.98S HX  83
PLATTEVILLE    SUNNY     80  63  55 SW13G21   30.00S HX  81
$$

WIZ056-057-062-063-064-067-068-011800-
SOUTH CENTRAL WISCONSIN

CITY           SKY/WX    TMP DP  RH WIND       PRES   REMARKS
REEDSBURG      SUNNY     79  53  41 S5        29.97S
BARABOO/DELLS  MOSUNNY   78  47  33 CALM      29.98S
LONE ROCK      NOT AVBL
MINERAL POINT  SUNNY     81  61  50 W13       30.00F HX  81
MADISON        MOSUNNY   79  58  48 VRB3      29.97F HX  80
MIDDLETON      MOSUNNY   81  56  43 CALM      29.99F HX  81
WATERTOWN      CLOUDY    74  58  58 N5        29.98S
MONROE         MOSUNNY   79  57  47 W13G21    30.00S HX  80
JANESVILLE     SUNNY     82  55  39 W9        29.98F HX  82
$$

WIZ051-052-058>065-066-070>072-011800-
SOUTHEAST WISCONSIN

CITY           SKY/WX    TMP DP  RH WIND       PRES   REMARKS
MILWAUKEE      PTSUNNY   77  53  43 NW9       29.98R
WAUKESHA       MOSUNNY   72  54  53 W6        29.99F
MILWAUKEE/TIMM NOT AVBL
RACINE         PTSUNNY   74  59  59 N7        30.00R
BURLINGTON     MOSUNNY   76  53  44 NW9       29.99R
KENOSHA        PTSUNNY   78  56  46 NW7       29.99R
FOND DU LAC    MOSUNNY   80  51  36 NW10      29.96S HX  80
SHEBOYGAN      SUNNY     80  51  36 W15       29.94S HX  80
WEST BEND      MOSUNNY   77  48  36 W8        29.97S
JUNEAU         MOSUNNY   73  58  59 SW5       29.99S
$$

LSZ147-162-011800-
LAKE SUPERIOR

STATION/POSITION TIME  TEMP    WIND        PRES    WAVE
                       AIR SEA DIR/SP/G            HT/PER
                 (UTC) (F)     (DEG/KT/KT) (MB)    (FT/S)
W MID LAKE BUOY  1550   57 54  240/ 12/ 12 1011.4F   1/ 4
DEVILS ISLAND    1600   63     230/ 14/ 17 1012.0F
PORT WING        1600   70     260/  7/ 10 1012.9F
SAXON HARBOR     1640   71                 1012.5S
$$

LMZ867-665-643>646-011800-
LAKE MICHIGAN

STATION/POSITION TIME  TEMP    WIND        PRES    WAVE
                       AIR SEA DIR/SP/G            HT/PER
                 (UTC) (F)     (DEG/KT/KT) (MB)    (FT/S)
CHAMBERS ISLAND  1600   73     260/  4/  8 1011.9F
S GREEN BAY BUOY 1500   65 69  240/  8/  8 1014.0
N MID LAKE BUOY  1550   66 68  260/  8/  8 1011.4R   1/ 3
NORTHPORT PIER   1600   72     260/  5/ 10 1011.9S
SISTER BAY       1629   78     280/  6/  8   N/A
ALGOMA LAKESHORE 1612          310/  9/ 15   N/A
KEWAUNEE LAKESHO 1600   75     290/  7/ 14 1012.3S
SHEBOYGAN LAKESH 1600   76     290/ 13/ 16 1013.8R
PORT WASHINGTON  1600   80     280/  8/ 12 1014.9R
ATWATER BUOY     1600   71 66  310/  4/  6 1016.2R
MILWAUKEE LAKESH 1600   76     310/  7/ 10   N/A
KENOSHA   LAKESH 1600   78     300/  9/ 13 1014.2F
$$

TC  - TEMPERATURE IN CELSIUS
VSB - VISIBILITY IN STATUTE MILES
WCI - WIND CHILL INDEX
HX  - HEAT INDEX




USA.gov is the U.S. government's official web portal to all federal, state and local government web resources and services.